Time,TemperatureF,DewpointF,PressureIn,WindDirection,WindDirectionDegrees,WindSpeedMPH,WindSpeedGustMPH,Humidity,HourlyPrecipIn,Conditions,Clouds,dailyrainin,SolarRadiationWatts/m^2,SoftwareType,DateUTC
2017-04-25 00:04:00,46.2,37.0,29.01,East,90,2.0,6.0,71,0.00,,,0.00,0,Rainwise IP-100,2017-04-25 04:04:00,
2017-04-25 00:09:00,46.0,37.0,29.01,ENE,67,3.0,6.0,71,0.00,,,0.00,0,Rainwise IP-100,2017-04-25 04:09:00,
2017-04-25 00:14:00,45.9,37.0,29.01,ENE,67,2.0,7.0,71,0.00,,,0.00,0,Rainwise IP-100,2017-04-25 04:14:00,
2017-04-25 00:19:00,45.7,37.0,29.01,East,90,2.0,2.0,72,0.00,,,0.00,0,Rainwise IP-100,2017-04-25 04:19:00,
2017-04-25 00:24:00,45.6,37.0,29.00,East,90,2.0,6.0,72,0.00,,,0.00,0,Rainwise IP-100,2017-04-25 04:24:00,
2017-04-25 00:29:00,45.3,37.0,29.00,ENE,67,1.0,4.0,73,0.00,,,0.00,0,Rainwise IP-100,2017-04-25 04:29:00,
2017-04-25 00:34:00,44.9,37.0,29.00,East,90,1.0,4.0,74,0.00,,,0.00,0,Rainwise IP-100,2017-04-25 04:34:00,
2017-04-25 00:39:00,44.9,37.0,29.00,ENE,67,2.0,4.0,74,0.00,,,0.00,0,Rainwise IP-100,2017-04-25 04:39:00,
2017-04-25 00:44:00,44.7,38.0,29.00,ENE,67,1.0,2.0,75,0.00,,,0.00,0,Rainwise IP-100,2017-04-25 04:44:00,
2017-04-25 00:49:00,44.5,38.0,28.99,NE,45,1.0,4.0,75,0.00,,,0.00,0,Rainwise IP-100,2017-04-25 04:49:00,
2017-04-25 00:55:00,44.2,37.0,28.99,ENE,67,2.0,3.0,76,0.00,,,0.00,0,Rainwise IP-100,2017-04-25 04:55:00,
2017-04-25 01:00:00,43.8,37.0,28.99,ENE,67,2.0,3.0,77,0.00,,,0.00,0,Rainwise IP-100,2017-04-25 05:00:00,
2017-04-25 01:05:00,43.8,37.0,28.99,East,90,1.0,4.0,77,0.00,,,0.00,0,Rainwise IP-100,2017-04-25 05:05:00,
2017-04-25 01:10:00,43.9,37.0,28.99,East,90,2.0,4.0,76,0.00,,,0.00,0,Rainwise IP-100,2017-04-25 05:10:00,
2017-04-25 01:15:00,43.8,37.0,28.99,ENE,67,2.0,4.0,77,0.00,,,0.00,0,Rainwise IP-100,2017-04-25 05:15:00,
2017-04-25 01:20:00,43.8,37.0,28.99,ENE,67,2.0,4.0,77,0.00,,,0.00,0,Rainwise IP-100,2017-04-25 05:20:00,
2017-04-25 01:25:00,43.6,38.0,28.99,East,90,2.0,2.0,78,0.00,,,0.00,0,Rainwise IP-100,2017-04-25 05:25:00,
2017-04-25 01:30:00,43.4,37.0,28.98,ESE,112,2.0,3.0,78,0.00,,,0.00,0,Rainwise IP-100,2017-04-25 05:30:00,
2017-04-25 01:35:00,43.2,37.0,28.98,East,90,1.0,3.0,78,0.00,,,0.00,0,Rainwise IP-100,2017-04-25 05:35:00,
2017-04-25 01:40:00,43.0,37.0,28.98,ENE,67,2.0,3.0,78,0.00,,,0.00,0,Rainwise IP-100,2017-04-25 05:40:00,
2017-04-25 01:45:00,42.8,37.0,28.98,East,90,0.0,2.0,79,0.00,,,0.00,0,Rainwise IP-100,2017-04-25 05:45:00,
2017-04-25 01:50:00,42.5,37.0,28.97,ENE,67,0.0,2.0,80,0.00,,,0.00,0,Rainwise IP-100,2017-04-25 05:50:00,
2017-04-25 01:56:00,42.3,37.0,28.97,ENE,67,0.0,1.0,80,0.00,,,0.00,0,Rainwise IP-100,2017-04-25 05:56:00,
2017-04-25 02:01:00,42.2,37.0,28.97,ENE,67,1.0,2.0,81,0.00,,,0.00,0,Rainwise IP-100,2017-04-25 06:01:00,
2017-04-25 02:06:00,41.9,37.0,28.96,ENE,67,2.0,2.0,81,0.00,,,0.00,0,Rainwise IP-100,2017-04-25 06:06:00,
2017-04-25 02:11:00,41.9,37.0,28.96,ENE,67,1.0,2.0,82,0.00,,,0.00,0,Rainwise IP-100,2017-04-25 06:11:00,
2017-04-25 02:16:00,42.1,37.0,28.96,ESE,112,1.0,2.0,82,0.00,,,0.00,0,Rainwise IP-100,2017-04-25 06:16:00,
2017-04-25 02:21:00,42.2,37.0,28.95,ESE,112,1.0,2.0,82,0.00,,,0.00,0,Rainwise IP-100,2017-04-25 06:21:00,
2017-04-25 02:26:00,42.2,37.0,28.95,ESE,112,1.0,2.0,82,0.00,,,0.00,0,Rainwise IP-100,2017-04-25 06:26:00,
2017-04-25 02:31:00,42.4,37.0,28.95,East,90,2.0,3.0,82,0.00,,,0.00,0,Rainwise IP-100,2017-04-25 06:31:00,
2017-04-25 02:36:00,42.5,38.0,28.95,East,90,1.0,4.0,81,0.00,,,0.00,0,Rainwise IP-100,2017-04-25 06:36:00,
2017-04-25 02:41:00,42.6,38.0,28.95,ESE,112,2.0,2.0,81,0.00,,,0.00,0,Rainwise IP-100,2017-04-25 06:41:00,
2017-04-25 02:46:00,42.5,38.0,28.95,East,90,1.0,3.0,81,0.00,,,0.00,0,Rainwise IP-100,2017-04-25 06:46:00,
2017-04-25 02:51:00,42.4,37.0,28.95,East,90,2.0,2.0,81,0.00,,,0.00,0,Rainwise IP-100,2017-04-25 06:51:00,
2017-04-25 02:57:00,42.2,37.0,28.95,East,90,0.0,2.0,82,0.00,,,0.00,0,Rainwise IP-100,2017-04-25 06:57:00,
2017-04-25 03:02:00,41.9,37.0,28.94,East,90,0.0,1.0,82,0.00,,,0.00,0,Rainwise IP-100,2017-04-25 07:02:00,
2017-04-25 03:07:00,41.6,38.0,28.94,East,90,0.0,0.0,84,0.00,,,0.00,0,Rainwise IP-100,2017-04-25 07:07:00,
2017-04-25 03:12:00,41.5,38.0,28.94,East,90,0.0,0.0,84,0.00,,,0.00,0,Rainwise IP-100,2017-04-25 07:12:00,
2017-04-25 03:17:00,41.5,38.0,28.94,East,90,1.0,2.0,84,0.00,,,0.00,0,Rainwise IP-100,2017-04-25 07:17:00,
2017-04-25 03:22:00,41.4,37.0,28.94,East,90,1.0,2.0,85,0.00,,,0.00,0,Rainwise IP-100,2017-04-25 07:22:00,
2017-04-25 03:27:00,41.3,37.0,28.93,East,90,1.0,2.0,85,0.00,,,0.00,0,Rainwise IP-100,2017-04-25 07:27:00,
2017-04-25 03:32:00,41.2,37.0,28.93,East,90,1.0,2.0,86,0.00,,,0.00,0,Rainwise IP-100,2017-04-25 07:32:00,
2017-04-25 03:37:00,41.1,38.0,28.93,NE,45,2.0,2.0,87,0.00,,,0.00,0,Rainwise IP-100,2017-04-25 07:37:00,
2017-04-25 03:42:00,41.2,38.0,28.93,NE,45,2.0,2.0,87,0.00,,,0.00,0,Rainwise IP-100,2017-04-25 07:42:00,
2017-04-25 03:47:00,41.2,38.0,28.93,ENE,67,2.0,2.0,87,0.00,,,0.00,0,Rainwise IP-100,2017-04-25 07:47:00,
2017-04-25 03:52:00,41.2,38.0,28.93,ENE,67,2.0,3.0,87,0.00,,,0.00,0,Rainwise IP-100,2017-04-25 07:52:00,
2017-04-25 03:58:00,41.2,38.0,28.93,ENE,67,2.0,3.0,87,0.00,,,0.00,0,Rainwise IP-100,2017-04-25 07:58:00,